Regional Weather Roundup
Issued by NWS

Home | Current Version | Previous Version | Graphics & Text | Print | Product List | Glossary On
Versions: 1 2 3 4 5 6 7 8 9 10 11 12 13 14 15 16 17 18 19 20 21 22 23 24 25 26 27 28 29 30 31 32 33 34 35 36 37 38 39 40 41 42 43 44 45 46 47 48 49 50
000
ASUS43 KBIS 180302
RWRND

NORTH DAKOTA REGIONAL WEATHER ROUNDUP
NATIONAL WEATHER SERVICE BISMARCK ND
900 PM CST WED JAN 17 2018

NOTE: "FAIR" INDICATES FEW OR NO CLOUDS BELOW 12,000 FEET WITH NO
SIGNIFICANT WEATHER AND/OR OBSTRUCTIONS TO VISIBILITY.


NDZ001>003-009>011-017-180400-
NORTHWEST NORTH DAKOTA

CITY           SKY/WX    TMP DP  RH WIND       PRES   REMARKS
WILLISTON      CLEAR     24  18  77 SW9       29.98F WCI  14
MINOT          CLOUDY    37  23  56 W20G26    29.89F
MINOT AFB      CLOUDY    33  23  67 W18       29.87F
$$

NDZ018>021-031>035-040>046-180400-
SOUTHWEST NORTH DAKOTA

CITY           SKY/WX    TMP DP  RH WIND       PRES   REMARKS
BISMARCK       PTCLDY    28  20  71 SW8       30.02F WCI  20
DICKINSON      PTCLDY    28  20  71 W14       29.97F WCI  17
GARRISON         N/A     27  20  75 W13       29.94F WCI  16
HETTINGER ARPT PTCLDY    24  17  74 W6        30.06F WCI  17
$$

NDZ004>008-012>016-024-026-027-054-180400-
NORTHEAST NORTH DAKOTA

CITY           SKY/WX    TMP DP  RH WIND       PRES   REMARKS
GRAND FORKS    FAIR      31  23  72 SW12G21   29.85F
GRND FRKS AFB  FAIR      34  22  63 W17G29    29.85F
DEVILS LAKE    FAIR      28  22  78 SW14      29.87F WCI  17
$$

NDZ022-023-025-028>030-036>039-047>053-180400-
SOUTHEAST NORTH DAKOTA

CITY           SKY/WX    TMP DP  RH WIND       PRES   REMARKS
FARGO          FAIR      30  22  72 SW15      29.94F WCI  19
JAMESTOWN      CLOUDY    34  23  64 W16       29.93F
$$





USA.gov is the U.S. government's official web portal to all federal, state and local government web resources and services.